East Midlands, United Kingdom

5:34 PM GMT on December 18, 2017 (GMT +0000)
East Midlands

Weather History for EGNX - February, 2013

Change the Weather History Date:

Tuesday, February 19, 2013

  Actual Average Record
Temperature  
Mean Temperature 37 °F -  
Max Temperature 48 °F 47 °F 55 °F (1999)
Min Temperature 26 °F 35 °F 21 °F (2008)
Degree Days  
Heating Degree Days 28    
Moisture  
Dew Point 31 °F    
Average Humidity 86    
Maximum Humidity 100    
Minimum Humidity 43    
Precipitation  
Precipitation 0.00 in - - ()
Sea Level Pressure  
Sea Level Pressure 30.09 in    
Wind  
Wind Speed 4 mph ()    
Max Wind Speed 8 mph    
Max Gust Speed -    
Visibility 2.6 miles    
Events Fog    
Averages and records for this station are not official NWS values.
T = Trace of Precipitation, MM = Missing Value Source: Averaged Metar Reports

Daily Weather History Graph

Daily Weather History Graph

Search for Another Location

Airport or City:

Trip Planner

Search our weather history database for the weather conditions in past years. The results will help you decide how hot, cold, wet, or windy it might be!

Date:

Astronomy

Feb. 19, 2013 Rise Set
Actual Time 7:13 AM GMT 5:25 PM GMT
Civil Twilight 6:38 AM GMT 6:00 PM GMT
Nautical Twilight 5:58 AM GMT 6:40 PM GMT
Astronomical Twilight 5:18 AM GMT 7:20 PM GMT
Moon 11:19 AM GMT (2/19) 2:58 AM GMT (2/19)
Length of Visible Light 11h 22m
Length of Day
10h 11m
Waxing Gibbous, 65% of the Moon is Illuminated
Feb 19
Waxing Gibbous
Feb 25
Full
Mar 4
Last Quarter
Mar 11
New
Mar 19
First Quarter

Hourly Weather History & Observations

Time (GMT) Temp. Windchill Dew Point Humidity Pressure Visibility Wind Dir Wind Speed Gust Speed Precip Events Conditions
12:20 AM 33.8 °F 29.6 °F 32.0 °F 93% 30.12 in 5.0 mi South 4.6 mph - N/A   Unknown
1:20 AM 30.2 °F 26.7 °F 30.2 °F 100% 30.12 in 4.3 mi Variable 3.5 mph - N/A   Unknown
1:50 AM 32.0 °F 28.7 °F 30.2 °F 93% 30.12 in 4.3 mi Variable 3.5 mph - N/A   Unknown
2:20 AM 32.0 °F 27.5 °F 32.0 °F 100% 30.12 in 4.3 mi WSW 4.6 mph - N/A   Unknown
2:50 AM 32.0 °F 27.5 °F 32.0 °F 100% 30.09 in 4.3 mi WSW 4.6 mph - N/A   Unknown
3:20 AM 32.0 °F 27.5 °F 32.0 °F 100% 30.09 in 3.7 mi West 4.6 mph - N/A   Unknown
3:50 AM 30.2 °F 26.7 °F 28.4 °F 93% 30.09 in 3.7 mi NW 3.5 mph - N/A   Unknown
4:20 AM 30.2 °F 26.7 °F 30.2 °F 100% 30.09 in 2.5 mi WNW 3.5 mph - N/A Fog Patches of Fog
4:50 AM 28.4 °F 24.6 °F 28.4 °F 100% 30.09 in 1.2 mi WNW 3.5 mph - N/A Fog Shallow Fog
5:20 AM 30.2 °F 26.7 °F 30.2 °F 100% 30.09 in 1.2 mi WNW 3.5 mph - N/A Fog Shallow Fog
5:50 AM 32.0 °F - 30.2 °F 93% 30.09 in 1.1 mi NNW 2.3 mph - N/A Fog Shallow Fog
6:20 AM 26.6 °F - 26.6 °F 100% 30.09 in 0.6 mi Calm Calm - N/A Fog Light Freezing Fog
6:50 AM 26.6 °F 21.2 °F 26.6 °F 100% 30.09 in 0.3 mi SW 4.6 mph - N/A Fog Light Freezing Fog
7:20 AM 26.6 °F 22.6 °F 24.8 °F 93% 30.09 in 0.3 mi SW 3.5 mph - N/A Fog Light Freezing Fog
7:50 AM 26.6 °F 22.6 °F 24.8 °F 93% 30.09 in 0.2 mi Variable 3.5 mph - N/A Fog Light Freezing Fog
8:20 AM 26.6 °F - 24.8 °F 93% 30.09 in 0.2 mi Variable 2.3 mph - N/A Fog Light Freezing Fog
8:50 AM 28.4 °F - 28.4 °F 100% 30.09 in 0.3 mi Variable 2.3 mph - N/A Fog Light Freezing Fog
9:20 AM 30.2 °F 26.7 °F 28.4 °F 93% 30.09 in 0.4 mi Variable 3.5 mph - N/A Fog Light Freezing Fog
9:50 AM 30.2 °F - 30.2 °F 100% 30.09 in 0.2 mi Variable 2.3 mph - N/A Fog Light Freezing Fog
10:20 AM 32.0 °F 28.7 °F 32.0 °F 100% 30.09 in 0.2 mi Variable 3.5 mph - N/A Fog Light Freezing Fog
10:50 AM 32.0 °F 28.7 °F 32.0 °F 100% 30.09 in 0.2 mi Variable 3.5 mph - N/A Fog Light Freezing Fog
11:20 AM 33.8 °F 29.6 °F 33.8 °F 100% 30.09 in 0.2 mi NW 4.6 mph - N/A Fog Light Freezing Fog
11:50 AM 37.4 °F 33.8 °F 37.4 °F 100% 30.09 in 1.2 mi NW 4.6 mph - N/A Fog Unknown
12:20 PM 39.2 °F 37.0 °F 35.6 °F 87% 30.09 in 1.2 mi Variable 3.5 mph - N/A Fog Fog
12:50 PM 41.0 °F 39.0 °F 35.6 °F 81% 30.09 in 1.6 mi Variable 3.5 mph - N/A Fog Fog
1:20 PM 42.8 °F 41.1 °F 33.8 °F 70% 30.09 in 3.1 mi Variable 3.5 mph - N/A   Mist
1:50 PM 44.6 °F - 32.0 °F 61% 30.06 in 3.1 mi Variable 2.3 mph - N/A   Mist
2:20 PM 48.2 °F - 32.0 °F 54% 30.06 in - Calm Calm - N/A   Clear
2:50 PM 48.2 °F - 28.4 °F 46% 30.06 in - Variable 2.3 mph - N/A   Clear
3:20 PM 48.2 °F - 28.4 °F 46% 30.06 in - Calm Calm - N/A   Clear
3:50 PM 48.2 °F - 26.6 °F 43% 30.06 in - Calm Calm - N/A   Clear
4:20 PM 46.4 °F - 24.8 °F 43% 30.06 in - Calm Calm - N/A   Clear
4:50 PM 42.8 °F 40.1 °F 30.2 °F 61% 30.06 in - East 4.6 mph - N/A   Clear
5:20 PM 41.0 °F 39.0 °F 30.2 °F 65% 30.06 in - East 3.5 mph - N/A   Clear
5:50 PM 39.2 °F 37.0 °F 30.2 °F 70% 30.06 in 6.2 mi East 3.5 mph - N/A   Haze
6:20 PM 39.2 °F 35.0 °F 32.0 °F 75% 30.09 in 6.2 mi East 5.8 mph - N/A   Unknown
6:50 PM 35.6 °F 29.9 °F 32.0 °F 87% 30.09 in - ENE 6.9 mph - N/A   Clear
7:20 PM 35.6 °F 29.2 °F 32.0 °F 87% 30.09 in - East 8.1 mph - N/A   Clear
7:50 PM 35.6 °F 29.9 °F 30.2 °F 81% 30.09 in - East 6.9 mph - N/A   Clear
8:20 PM 35.6 °F 29.2 °F 33.8 °F 93% 30.09 in - NE 8.1 mph - N/A   Clear
8:50 PM 33.8 °F 27.0 °F 32.0 °F 93% 30.12 in 5.6 mi East 8.1 mph - N/A   Unknown
9:20 PM 32.0 °F 24.8 °F 30.2 °F 93% 30.12 in 5.6 mi East 8.1 mph - N/A   Unknown
9:50 PM 33.8 °F 28.6 °F 32.0 °F 93% 30.12 in 5.6 mi ENE 5.8 mph - N/A   Mostly Cloudy
10:50 PM 35.6 °F 29.2 °F 33.8 °F 93% 30.12 in 5.6 mi ENE 8.1 mph - N/A   Overcast
11:20 PM 35.6 °F 29.2 °F 33.8 °F 93% 30.12 in 5.6 mi ENE 8.1 mph - N/A   Overcast